| time (UTC) | temp C | wind direction | speed KPH | gust KPH | rain 1hr cm | rain 24hr cm | rain mn cm | humidity % | barometer mb |
| 20260507140116 | 21 | 0 | 0.0 | 4.8 | 0.00 | 0.00 | 0.00 | 21 | 1014.6 |
| 20260507134555 | 20 | 0 | 0.0 | 1.6 | 0.00 | 0.00 | 0.00 | 26 | 1014.4 |
| 20260507133054 | 18 | 0 | 0.0 | 1.6 | 0.00 | 0.00 | 0.00 | 29 | 1014.4 |
| 20260507131603 | 17 | 0 | 0.0 | 0.0 | 0.00 | 0.00 | 0.00 | 34 | 1014.4 |
| 20260507130110 | 16 | 0 | 0.0 | 0.0 | 0.00 | 0.00 | 0.00 | 33 | 1014.4 |
| 20260507124605 | 17 | 0 | 0.0 | 0.0 | 0.00 | 0.00 | 0.00 | 32 | 1014.3 |
| 20260507123057 | 16 | 0 | 0.0 | 1.6 | 0.00 | 0.00 | 0.00 | 33 | 1014.1 |
| 20260507121550 | 16 | 0 | 0.0 | 1.6 | 0.00 | 0.00 | 0.00 | 35 | 1014.1 |
| 20260507120053 | 15 | 0 | 0.0 | 1.6 | 0.00 | 0.00 | 0.00 | 37 | 1014.1 |
| 20260507114551 | 15 | 0 | 0.0 | 0.0 | 0.00 | 0.00 | 0.00 | 37 | 1014.2 |
| 20260507113048 | 15 | 0 | 0.0 | 1.6 | 0.00 | 0.00 | 0.00 | 37 | 1014.2 |
| 20260507111548 | 14 | 0 | 0.0 | 1.6 | 0.00 | 0.00 | 0.00 | 37 | 1014.3 |
| 20260507110051 | 15 | 0 | 0.0 | 0.0 | 0.00 | 0.00 | 0.00 | 36 | 1014.4 |
| 20260507104551 | 16 | 0 | 0.0 | 0.0 | 0.00 | 0.00 | 0.00 | 34 | 1014.5 |
| 20260507103053 | 16 | 0 | 0.0 | 0.0 | 0.00 | 0.00 | 0.00 | 32 | 1014.4 |
| 20260507101551 | 17 | 0 | 0.0 | 1.6 | 0.00 | 0.00 | 0.00 | 30 | 1014.6 |
| 20260507100050 | 17 | 0 | 0.0 | 4.8 | 0.00 | 0.00 | 0.00 | 30 | 1014.7 |
| 20260507094554 | 17 | 0 | 0.0 | 4.8 | 0.00 | 0.00 | 0.00 | 30 | 1014.7 |
| 20260507093052 | 17 | 0 | 0.0 | 3.2 | 0.00 | 0.00 | 0.00 | 30 | 1014.8 |
| 20260507091549 | 17 | 0 | 0.0 | 4.8 | 0.00 | 0.00 | 0.00 | 30 | 1014.8 |
| 20260507090051 | 17 | 0 | 0.0 | 6.4 | 0.00 | 0.00 | 0.00 | 31 | 1015.0 |
| 20260507084554 | 17 | 0 | 0.0 | 4.8 | 0.00 | 0.00 | 0.00 | 32 | 1015.2 |
| 20260507083055 | 16 | 0 | 0.0 | 6.4 | 0.00 | 0.00 | 0.00 | 33 | 1015.2 |
| 20260507081547 | 15 | 0 | 0.0 | 0.0 | 0.00 | 0.00 | 0.00 | 35 | 1015.3 |
| 20260507080114 | 15 | 0 | 0.0 | 1.6 | 0.00 | 0.00 | 0.00 | 34 | 1015.3 |
| 20260507074602 | 16 | 0 | 0.0 | 0.0 | 0.00 | 0.00 | 0.00 | 33 | 1015.4 |
| 20260507073058 | 16 | 0 | 0.0 | 0.0 | 0.00 | 0.00 | 0.00 | 33 | 1015.4 |
| 20260507071601 | 16 | 0 | 0.0 | 1.6 | 0.00 | 0.00 | 0.00 | 33 | 1015.4 |
| 20260507070049 | 16 | 0 | 0.0 | 1.6 | 0.00 | 0.00 | 0.00 | 32 | 1015.5 |
| 20260507064554 | 17 | 0 | 0.0 | 1.6 | 0.00 | 0.00 | 0.00 | 32 | 1015.5 |
| 20260507063055 | 17 | 0 | 0.0 | 1.6 | 0.00 | 0.00 | 0.00 | 32 | 1015.5 |
| 20260507061553 | 17 | 0 | 0.0 | 3.2 | 0.00 | 0.00 | 0.00 | 31 | 1015.5 |
| 20260507060049 | 17 | 0 | 0.0 | 3.2 | 0.00 | 0.00 | 0.00 | 31 | 1015.4 |
| 20260507054552 | 18 | 0 | 0.0 | 1.6 | 0.00 | 0.00 | 0.00 | 30 | 1015.4 |
| 20260507053052 | 18 | 0 | 0.0 | 3.2 | 0.00 | 0.00 | 0.00 | 30 | 1015.4 |
| 20260507051552 | 18 | 0 | 0.0 | 1.6 | 0.00 | 0.00 | 0.00 | 30 | 1015.4 |
| 20260507050055 | 19 | 0 | 0.0 | 1.6 | 0.00 | 0.00 | 0.00 | 29 | 1015.3 |
| 20260507044551 | 19 | 0 | 0.0 | 4.8 | 0.00 | 0.00 | 0.00 | 28 | 1015.2 |
| 20260507043046 | 19 | 0 | 0.0 | 6.4 | 0.00 | 0.00 | 0.00 | 28 | 1015.1 |
| 20260507041559 | 20 | 0 | 0.0 | 6.4 | 0.00 | 0.00 | 0.00 | 28 | 1014.9 |
| 20260507040059 | 20 | 0 | 0.0 | 3.2 | 0.00 | 0.00 | 0.00 | 28 | 1014.7 |
| 20260507034559 | 20 | 0 | 0.0 | 1.6 | 0.00 | 0.00 | 0.00 | 27 | 1014.4 |
| 20260507033056 | 21 | 0 | 0.0 | 1.6 | 0.00 | 0.00 | 0.00 | 26 | 1014.3 |
| 20260507031556 | 21 | 0 | 0.0 | 1.6 | 0.00 | 0.00 | 0.00 | 26 | 1014.0 |
| 20260507030054 | 22 | 0 | 0.0 | 1.6 | 0.00 | 0.00 | 0.00 | 25 | 1013.8 |
| 20260507024555 | 22 | 244 | 0.0 | 4.8 | 0.00 | 0.00 | 0.00 | 24 | 1013.7 |
| 20260507023054 | 23 | 0 | 0.0 | 3.2 | 0.00 | 0.00 | 0.00 | 23 | 1013.6 |
| 20260507021555 | 23 | 0 | 0.0 | 6.4 | 0.00 | 0.00 | 0.00 | 22 | 1013.5 |
| 20260507020101 | 24 | 261 | 0.0 | 6.4 | 0.00 | 0.00 | 0.00 | 22 | 1013.2 |
| 20260507014602 | 25 | 0 | 0.0 | 12.9 | 0.00 | 0.00 | 0.00 | 21 | 1013.3 |
| 20260507013055 | 25 | 0 | 0.0 | 12.9 | 0.00 | 0.00 | 0.00 | 20 | 1013.1 |
| 20260507011601 | 26 | 0 | 1.6 | 11.3 | 0.00 | 0.00 | 0.00 | 20 | 1013.0 |
| 20260507010055 | 26 | 293 | 4.8 | 16.1 | 0.00 | 0.00 | 0.00 | 19 | 1012.9 |
| 20260507004553 | 26 | 277 | 3.2 | 19.3 | 0.00 | 0.00 | 0.00 | 19 | 1012.9 |
| 20260507003051 | 26 | 275 | 4.8 | 12.9 | 0.00 | 0.00 | 0.00 | 19 | 1012.9 |
| 20260507001613 | 26 | 234 | 0.0 | 17.7 | 0.00 | 0.00 | 0.00 | 19 | 1012.8 |
| 20260507000058 | 27 | 252 | 3.2 | 22.5 | 0.00 | 0.00 | 0.00 | 19 | 1012.8 |
| 20260506234554 | 26 | 202 | 0.0 | 12.9 | 0.00 | 0.00 | 0.00 | 19 | 1012.8 |
| 20260506233052 | 27 | 215 | 0.0 | 9.7 | 0.00 | 0.00 | 0.00 | 18 | 1013.0 |
| 20260506231548 | 26 | 0 | 0.0 | 11.3 | 0.00 | 0.00 | 0.00 | 19 | 1013.1 |
| 20260506230057 | 27 | 210 | 3.2 | 12.9 | 0.00 | 0.00 | 0.00 | 19 | 1013.2 |
| 20260506224554 | 26 | 254 | 1.6 | 12.9 | 0.00 | 0.00 | 0.00 | 19 | 1013.4 |
| 20260506223050 | 27 | 0 | 0.0 | 12.9 | 0.00 | 0.00 | 0.00 | 19 | 1013.4 |
| 20260506221549 | 26 | 0 | 1.6 | 14.5 | 0.00 | 0.00 | 0.00 | 20 | 1013.6 |
| 20260506214549 | 26 | 0 | 1.6 | 14.5 | 0.00 | 0.00 | 0.00 | 21 | 1013.8 |
| 20260506213101 | 26 | 167 | 1.6 | 17.7 | 0.00 | 0.00 | 0.00 | 21 | 1013.9 |
| 20260506211551 | 26 | 153 | 3.2 | 16.1 | 0.00 | 0.00 | 0.00 | 21 | 1014.2 |
| 20260506210121 | 25 | 304 | 6.4 | 14.5 | 0.00 | 0.00 | 0.00 | 21 | 1014.5 |
| 20260506204552 | 25 | 74 | 0.0 | 12.9 | 0.00 | 0.00 | 0.00 | 22 | 1014.8 |
| 20260506203137 | 25 | 241 | 3.2 | 20.9 | 0.00 | 0.00 | 0.00 | 22 | 1014.9 |
| 20260506201549 | 25 | 117 | 0.0 | 12.9 | 0.00 | 0.00 | 0.00 | 22 | 1014.9 |
| 20260506200054 | 25 | 267 | 3.2 | 12.9 | 0.00 | 0.00 | 0.00 | 23 | 1015.1 |
| 20260506194551 | 24 | 0 | 3.2 | 14.5 | 0.00 | 0.00 | 0.00 | 23 | 1015.3 |
| 20260506193051 | 24 | 300 | 3.2 | 16.1 | 0.00 | 0.00 | 0.00 | 23 | 1015.4 |
| 20260506191554 | 23 | 0 | 3.2 | 16.1 | 0.00 | 0.00 | 0.00 | 25 | 1015.5 |
| 20260506190053 | 23 | 202 | 4.8 | 14.5 | 0.00 | 0.00 | 0.00 | 25 | 1015.8 |
| 20260506184555 | 23 | 288 | 3.2 | 11.3 | 0.00 | 0.00 | 0.00 | 25 | 1015.9 |
| 20260506183059 | 23 | 130 | 6.4 | 16.1 | 0.00 | 0.00 | 0.00 | 25 | 1016.1 |
| 20260506181600 | 23 | 282 | 3.2 | 11.3 | 0.00 | 0.00 | 0.00 | 25 | 1016.2 |
| 20260506180057 | 22 | 138 | 4.8 | 14.5 | 0.00 | 0.00 | 0.00 | 26 | 1016.3 |
| 20260506174608 | 22 | 294 | 0.0 | 17.7 | 0.00 | 0.00 | 0.00 | 26 | 1016.3 |
| 20260506173057 | 22 | 129 | 0.0 | 9.7 | 0.00 | 0.00 | 0.00 | 27 | 1016.4 |
| 20260506171611 | 22 | 0 | 0.0 | 9.7 | 0.00 | 0.00 | 0.00 | 28 | 1016.3 |
| 20260506170104 | 21 | 109 | 0.0 | 11.3 | 0.00 | 0.00 | 0.00 | 29 | 1016.3 |
| 20260506164554 | 21 | 0 | 0.0 | 6.4 | 0.00 | 0.00 | 0.00 | 30 | 1016.2 |
| 20260506163107 | 20 | 0 | 1.6 | 9.7 | 0.00 | 0.00 | 0.00 | 31 | 1016.3 |
| 20260506161553 | 20 | 108 | 0.0 | 6.4 | 0.00 | 0.00 | 0.00 | 32 | 1016.1 |
| 20260506160053 | 18 | 116 | 0.0 | 6.4 | 0.00 | 0.00 | 0.00 | 34 | 1016.1 |
| 20260506154554 | 18 | 117 | 3.2 | 11.3 | 0.00 | 0.00 | 0.00 | 34 | 1016.2 |
| 20260506153102 | 18 | 0 | 1.6 | 6.4 | 0.00 | 0.00 | 0.00 | 35 | 1016.3 |
| 20260506151555 | 18 | 142 | 0.0 | 6.4 | 0.00 | 0.00 | 0.00 | 35 | 1016.2 |
| 20260506150052 | 18 | 80 | 1.6 | 6.4 | 0.00 | 0.00 | 0.00 | 35 | 1016.2 |
| 20260506144557 | 18 | 0 | 1.6 | 8.0 | 0.00 | 0.00 | 0.00 | 35 | 1016.1 |
| 20260506143051 | 17 | 0 | 0.0 | 4.8 | 0.00 | 0.00 | 0.00 | 37 | 1016.1 |
| 20260506141556 | 17 | 0 | 0.0 | 4.8 | 0.00 | 0.00 | 0.00 | 38 | 1016.0 |